Showing default

COSMOS 2270, 23001

Orbit data source: Space-Track

COSMOS 2270, 23001 is a payload satellite owned by VKS (CIS) in LEO that was launched on Sat, 12 Feb 1994 UTC via a TSIKLON-3 launch vehicle from the Plesetsk Missile And Space Complex (PKMTR). Payload-class satellites include a variety of spacecraft equipped with specific instruments for various scientific and technological missions. These include communications satellites like Starlink; space stations such as the ISS; scientific satellites like the Hubble; Earth observation satellites from companies like Planet Labs, Umbra, and HawkEye 360; GPS; miniature CubeSats for education and research; and military/defense satellites.

Loading next visibility...
Identifier
23001, 1994-011C
Orbit
LEO
Country
Flag of CISCIS
Related business
Manufacturer
NPO PM
Mission
Defense Communications
Bus & Motor
STRELA-3, Unknown motor
Mass
225 kg wet, 225 kg dry
Launch date (UTC)
1994-02-12 (32 years ago)
Launch vehicle
TSIKLON-3
Launch site
Plesetsk Missile And Space Complex (PKMTR)
Object type
Payload
Rocket body
Debris
Shape & HBR
Cyl, 0.8 m
Radar Cross Section
1.257 m², Large (>1 m²)

Expand to show TLE details & history
Last TLE update: 9 hours ago

TLE from 9 hours ago
0 COSMOS 2270
1 23001U 94011C   25352.23311295  .00000024  00000-0  73827-4 0  9991
2 23001  82.5740  69.5031 0006834 221.9529 151.8591 12.62929513467815
Epoch: 2025-12-18T05:35Z
TLE epoch observation values (Epoch: 2025-12-18T05:35:40.958Z)
Latitude
13.69984°
Longitude
-99.69736°
Altitude
1,417.574 km
Speed
7.151 km/s
True Right ascension
04h 45m 15s
True Declination
13° 37' 39"
Sunlit
Object was in full shadow at epoch
Visualization orbit readout
Latitude
Unknown
Longitude
Unknown
Altitude
Unknown
Speed
Unknown
Apparent Right ascension
Unknown
Apparent Declination
Unknown
Sunlit
N/A
Visualization observer readout
Local Sidereal Time
13:48:42
Azimuth
Unknown
Elevation
Unknown
Doppler factor
Unknown
Orbital elements
Apogee altitude
1,413.517 km
Perigee altitude
1,402.875 km
Semi-major axis
7,786.333 km
Eccentricity
0.00068
Inclination
82.574°
RAAN
69.5031°
Arg. of periapsis
221.9529°
True anomaly
151.89601°
Mean anomaly
151.8591°
Eccentric anomaly
151.87756°
Mean motion
3.15896 °/min
Orbital period
113.96 mins
BSTAR
0.000073827
Loading maneuver chart data...
Computing Atmospheric mass density...
Loading historical data...
Loading historical data...
Loading historical data...
Loading historical data...
Loading historical data...
Loading historical data...
Loading historical data...

Documentation

Showing up to 5 results
|